Zurück zum Katalog

FALCON HEAVY R/B

AktivHEO
NORAD 60134·ROCKET BODY·🇺🇸 United States

Gestartet Jun 25, 2024 von Cape Canaveral Space Force Station

Loading…

Nächste Überflüge (nächste 24 Stunden)

TLE

AktuellSource: Space-Track

Epoche: Sep 14, 2026, 17:40 UTC

1 60134U 24119B   26257.73654955 -.00000126  00000-0  00000-0 0  9997
2 60134   6.0480  63.6616 2944204 246.9402  79.7167  1.51714967 12319

Verfolge FALCON HEAVY R/B in Echtzeit mit AllMySat

Download on the App Store